Regional Weather Roundup
Issued by NWS

Home | Current Version | Previous Version | Text Only | Print | Product List | Glossary Off
Versions: 1 2 3 4 5 6 7 8 9 10 11 12 13 14 15 16 17 18 19 20 21 22 23 24 25 26 27 28 29 30 31 32 33 34 35 36 37 38 39 40 41 42 43 44 45 46 47 48 49 50

000
ASUS43 KOAX 231210
RWRNE

WEATHER ROUNDUP FOR NEBRASKA
NATIONAL WEATHER SERVICE OMAHA NE
700 AM CDT WED APR 23 2014

NOTES: SATELLITE DATA IS BEING USED TO AUGMENT CLOUD COVER ABOVE
       12000 FEET.
       "FAIR" INDICATES FEW OR NO CLOUDS BELOW 12,000 FEET WITH NO
       SIGNIFICANT WEATHER AND/OR OBSTRUCTIONS TO VISIBILITY.

  * THESE STATIONS DO NOT REPORT WEATHER SUCH AS RAIN...SNOW OR FOG.

NEZ001>004-019>022-054>056-231300-
NEBRASKA PANHANDLE

CITY           SKY/WX    TMP DP  RH WIND       PRES   REMARKS
SCOTTSBLUFF    CLOUDY    53  44  71 CALM      29.53R
6HR MIN TEMP:  51; 6HR MAX TEMP:  58;

ALLIANCE       CLOUDY    52  45  77 SE10      29.49F
6HR MIN TEMP:  52; 6HR MAX TEMP:  59;

CHADRON        CLOUDY    55  46  71 SW5       29.49R
6HR MIN TEMP:  55; 6HR MAX TEMP:  62;

KIMBALL        CLOUDY    50  37  59 W7        29.54R
SIDNEY         CLOUDY    49  42  77 SW3       29.53F
6HR MIN TEMP:  48; 6HR MAX TEMP:  60;

$$

NEZ057>060-069>072-079>082-231300-
SOUTHWEST NEBRASKA

CITY           SKY/WX    TMP DP  RH WIND       PRES   REMARKS
NORTH PLATTE   MOCLDY    56  40  55 SE16      29.58F
6HR MIN TEMP:  56; 6HR MAX TEMP:  61;

IMPERIAL       CLOUDY    58  43  57 S12       29.54F
6HR MIN TEMP:  58; 6HR MAX TEMP:  63;

LEXINGTON      CLOUDY    54  37  51 SE22G29   29.66S
MCCOOK         CLOUDY    55  44  66 SE13      29.61F
6HR MIN TEMP:  55; 6HR MAX TEMP:  63;

OGALLALA       CLOUDY    52  44  74 SE8       29.54F
$$

NEZ005>010-023>029-035>040-094-231300-
NORTH CENTRAL NEBRASKA

CITY           SKY/WX    TMP DP  RH WIND       PRES   REMARKS
VALENTINE      CLOUDY    54  33  45 SE16      29.55F
6HR MIN TEMP:  54; 6HR MAX TEMP:  61;

AINSWORTH      CLOUDY    54  34  47 S23G31    29.56F
BROKEN BOW     MOCLDY    54  35  48 SE18G33   29.66F
6HR MIN TEMP:  50; 6HR MAX TEMP:  56;

O`NEILL        PTCLDY    54  32  43 SE21G31   29.68S
ORD            CLOUDY    50  37  61 SE14G21   29.68F
6HR MIN TEMP:  50; 6HR MAX TEMP:  56;

THEDFORD       CLOUDY    56  34  42 S24G30    29.57F
$$

NEZ041-046>049-061>064-073>077-083>087-231300-
SOUTH CENTRAL NEBRASKA

CITY           SKY/WX    TMP DP  RH WIND       PRES   REMARKS
GRAND ISLAND   CLOUDY    52  40  63 SE24G31   29.74F
6HR MIN TEMP:  52; 6HR MAX TEMP:  57; 6HR PCP: TRACE;

AURORA         CLOUDY    52  40  65 SE22G30   29.78F
HASTINGS       CLOUDY    53  39  59 SE18G28   29.73F
6HR MIN TEMP:  53; 6HR MAX TEMP:  58; 6HR PCP: TRACE;

HEBRON         CLOUDY    52  43  71 SE14G20   29.83S
HOLDREGE       CLOUDY    54  35  49 SE26G38   29.69S
KEARNEY *      CLOUDY    54  37  54 S23G36    29.71S
YORK           CLOUDY    50  41  71 SE21G29   29.81F
$$

NEZ011>018-030>034-042>045-231300-
NORTHEAST NEBRASKA

CITY           SKY/WX    TMP DP  RH WIND       PRES   REMARKS
NORFOLK        CLOUDY    52  37  56 SE22G32   29.78S
6HR MIN TEMP:  51; 6HR MAX TEMP:  57; 6HR PCP: TRACE;

ALBION         CLOUDY    51  37  59 SE23G36   29.76F
BLAIR          CLOUDY    53  33  48 SE18      29.92R
COLUMBUS *     CLOUDY    48  36  61 SE17G31   29.83F
FREMONT        CLOUDY    54  35  49 SE23G30   29.88F
TEKAMAH        CLOUDY    53  35  50 SE20      29.92S
6HR MIN TEMP:  51; 6HR MAX TEMP:  55; 6HR PCP: TRACE;

$$

NEZ050>053-065>068-078-088>093-231300-
SOUTHEAST NEBRASKA

CITY           SKY/WX    TMP DP  RH WIND       PRES   REMARKS
LINCOLN        CLOUDY    57  34  41 SE15G22   29.91R
6HR MIN TEMP:  55; 6HR MAX TEMP:  61; 6HR PCP: TRACE;

OMAHA EPPLEY   CLOUDY    54  33  45 SE16      29.95R
6HR MIN TEMP:  53; 6HR MAX TEMP:  58;

BEATRICE       LGT RAIN  52  40  63 SE15G22   29.89F
FALLS CITY     MOCLDY    53  37  54 SE12      29.96R
6HR MIN TEMP:  50; 6HR MAX TEMP:  54;

NEBRASKA CITY  CLOUDY    55  35  47 SE14G23   29.95R
PLATTSMOUTH    LGT RAIN  54  34  46 SE16G22   29.94R
$$

NEZ044-045-051>053-067-231300-
OMAHA AREA

CITY           SKY/WX    TMP DP  RH WIND       PRES   REMARKS
OMAHA EPPLEY   CLOUDY    54  33  45 SE16      29.95R
6HR MIN TEMP:  53; 6HR MAX TEMP:  58;

BLAIR          CLOUDY    53  33  48 SE18      29.92R
FREMONT        CLOUDY    54  35  49 SE23G30   29.88F
MILLARD        CLOUDY    54  35  48 SE14      29.93R
OFFUTT AFB     LGT RAIN  54  36  50 SE16      29.95R
PLATTSMOUTH    LGT RAIN  54  34  46 SE16G22   29.94R
WAHOO          FAIR      53  34  48 SE18      29.88F
$$



USA.gov is the U.S. government's official web portal to all federal, state and local government web resources and services.